Location: Asté
(43.0409°N, 0.1694°E)
Time: 10:33:04
(UTC+00:00)

Daily predictions for brighter satellites

Satellite Brightness Start Highest point End
(mag) Time Altitude Azimuth Time Altitude Azimuth Time Altitude Azimuth
ATLAS 5 CENTAUR R/B 1.8 16:57:04 10° NNW 17:01:31 71° NE 17:07:06 10° SE
Cosmos 1484 Rocket 3.0 16:59:03 10° S 17:02:31 65° WSW 17:06:02 10° NNW
Iridium 4 Rocket 4.1 16:59:26 10° SSW 17:04:29 58° W 17:09:08 10° N
Cosmos 2233 Rocket 4.0 17:00:25 10° S 17:06:42 79° E 17:13:02 10° N
Cosmos 1725 Rocket 4.4 17:01:28 10° SSW 17:07:43 72° W 17:14:02 10° N
Cosmos 407 Rocket 3.8 17:02:50 10° S 17:07:47 47° ESE 17:12:43 10° NNE
CBERS-1 4.3 17:03:28 10° S 17:08:34 75° WSW 17:13:41 10° NNW
Cosmos 2061 Rocket 4.0 17:02:58 10° S 17:09:14 74° E 17:15:28 10° NNE
RESURS DK-1 3.1 17:06:53 10° N 17:10:23 29° NE 17:13:54 10° ESE
Cosmos 1782 Rocket 3.7 17:09:11 10° S 17:13:37 83° W 17:18:04 10° N
ISS -3.7 17:10:32 10° WSW 17:13:53 78° NNW 17:17:12 10° NE
CZ-2D R/B 3.1 17:11:54 10° SE 17:14:51 39° ENE 17:17:50 10° N
Cosmos 1869 3.4 17:12:09 10° SSE 17:15:28 39° E 17:18:46 10° NNE
SPOT 1/Viking Rocket 4.5 17:13:31 10° ESE 17:17:43 26° ENE 17:21:56 10° N
Cosmos 1300 Rocket 4.0 17:13:26 10° SSW 17:17:48 66° W 17:22:10 10° N
SJ-12 3.8 17:17:57 10° SSE 17:21:38 51° ENE 17:25:20 10° N
IGS 5A 3.9 17:18:36 10° S 17:22:32 63° W 17:26:32 10° NNW
COSMO-SKYMED 1 3.9 17:21:35 10° NE 17:24:22 17° E 17:27:08 10° SE
AQUARIUS 4.3 17:21:13 10° SE 17:25:26 48° ENE 17:29:41 10° N
SL-12 R/B(2) 4.3 17:17:46 10° SSW 17:25:29 76° ESE 17:34:54 10° NE
BREEZE-M DEB (TANK) 2.2 17:26:17 10° W 17:28:33 58° NNW 17:32:21 13° ENE
Cosmos 1400 Rocket 4.1 17:26:47 10° SE 17:29:29 19° E 17:31:12 14° ENE
Cosmos 540 Rocket 3.6 17:25:42 10° N 17:30:43 51° ENE 17:35:40 10° SE
Cosmos 1975 Rocket 3.1 17:29:53 10° N 17:34:15 85° W 17:38:37 10° S
Cosmos 1812 2.4 17:32:08 10° SSE 17:34:51 39° E 17:37:34 10° NNE
Cosmos 1763 Rocket 3.4 17:31:02 10° NNW 17:36:14 68° ENE 17:41:20 10° SSE
CORIOLIS 4.5 17:32:33 10° S 17:37:53 72° WSW 17:43:15 10° NNW
Cosmos 2151 Rocket 4.2 17:36:01 10° SSE 17:40:02 33° E 17:44:04 10° NNE
SMAP 3.5 17:36:49 10° S 17:41:26 66° WSW 17:46:05 10° NNW
Cosmos 44 Rocket 3.2 17:37:52 10° SSW 17:42:36 77° ESE 17:47:06 12° NE
IRS-1C 4.2 17:37:38 10° SSE 17:42:58 83° WSW 17:48:19 10° NNW
Cosmos 2058 3.2 17:40:29 10° N 17:44:14 39° ENE 17:47:59 10° SSE
Cosmos 1943 Rocket 2.2 17:41:53 10° SSW 17:47:31 89° WNW 17:53:08 10° NNE
Okean 1 Rocket 4.0 17:46:17 10° SSE 17:49:58 27° E 17:51:42 21° NE
CZ-2D R/B 3.8 17:46:35 10° SE 17:50:28 42° ENE 17:54:27 10° N
Sich 1 Rocket 4.4 17:47:07 10° SSE 17:51:00 29° E 17:53:28 18° NE
SKYMED 2 3.7 17:46:58 10° NNE 17:51:12 50° E 17:55:25 10° S
PSLV R/B 4.1 17:48:34 10° SE 17:52:07 30° ENE 17:55:40 10° N
Helios 1A Rocket 3.2 17:51:57 28° ENE 17:52:44 31° E 17:55:47 10° SSE
Landsat 7 4.1 17:49:16 10° S 17:53:53 69° WSW 17:58:32 10° NNW
Cosmos 2082 Rocket 2.3 17:49:20 10° NNW 17:54:48 50° ENE 18:00:14 10° SE
Cosmos 1072 Rocket 4.4 17:49:49 10° S 17:55:51 60° E 18:01:51 10° NNE
Cosmos 2278 Rocket 2.3 17:50:39 10° SSW 17:56:18 81° WNW 18:01:59 10° NNE
Aureole 3 Rocket 2.2 17:56:33 10° S 17:59:35 80° W 18:02:43 10° N
BREEZE-M DEB (TANK) 3.0 17:57:39 10° WSW 18:00:12 66° NNW 18:03:16 23° ENE
BREEZE-M DEB (TANK) 3.6 17:58:59 10° W 18:01:21 41° NNW 18:04:09 20° NE
Cosmos 2369 Rocket 4.1 18:03:38 10° SE 18:04:20 12° SE 18:04:20 12° SE
Cosmos 2251 Rocket 3.5 18:01:51 10° SSW 18:07:07 87° ESE 18:12:28 10° NNE
YAOGAN 1 2.6 18:05:47 10° SSE 18:09:53 51° ENE 18:14:02 10° N
Cosmos 371 Rocket 3.4 18:06:10 10° S 18:10:46 49° ESE 18:12:52 29° NE
Cosmos 304 Rocket 3.8 18:07:16 10° S 18:11:50 52° ESE 18:13:57 29° NE
SJ 16-02 1.2 18:09:09 10° S 18:13:26 69° ESE 18:15:42 27° NNE
SL-19 R/B 4.1 18:09:01 10° SSE 18:14:07 58° ENE 18:19:15 10° N
Cosmos 841 Rocket 3.9 18:10:57 10° N 18:15:54 40° ENE 18:17:16 34° E
Nadezhda 4 Rocket 3.9 18:15:25 10° N 18:21:43 75° E 18:27:55 10° SSE
Resurs 1-3 3.4 18:17:36 10° SSE 18:21:51 65° ENE 18:26:07 10° N
Cosmos 1862 2.9 18:20:17 10° N 18:23:55 87° E 18:27:33 10° S
ARIANE 5 R/B 4.3 18:20:15 10° SSW 18:24:42 32° W 18:29:11 10° NNW
ATLAS 2AS CENTAUR R/B 3.7 18:19:24 10° NNW 18:24:55 25° NNE 18:25:35 25° NE
Cosmos 1656 Rocket 3.8 18:22:13 10° S 18:27:30 48° ESE 18:28:33 42° ENE
COSMOS 2406 3.3 18:22:03 10° NNW 18:27:36 50° ENE 18:29:08 40° ESE
Cosmos 468 Rocket 4.1 18:24:21 10° NNW 18:29:32 77° WSW 18:34:39 10° SSE
Okean 2 Rocket 3.1 18:30:23 10° S 18:34:46 80° W 18:37:52 19° N
Cosmos 2195 Rocket 4.4 18:29:19 10° N 18:35:37 64° E 18:41:53 10° SSE
Cosmos 1536 Rocket 3.7 18:31:40 10° NNW 18:36:05 72° W 18:40:27 10° S
MOS 1 Rocket 4.5 18:32:27 10° SSW 18:36:28 39° W 18:40:40 10° NNW
USA 215 4.1 18:30:58 10° SSE 18:37:14 49° SW 18:43:33 10° WNW
Cosmos 1190 Rocket 4.5 18:32:50 10° SSW 18:38:03 60° WNW 18:42:26 15° N
Cosmos 676 Rocket 3.9 18:35:37 10° SSW 18:40:55 88° ESE 18:43:16 35° NNE
Cosmos 1428 Rocket 4.4 18:35:04 10° N 18:41:23 87° E 18:47:41 10° S
Resurs 01 Rocket 4.1 18:46:22 11° N 18:46:22 11° N 18:46:34 10° N
Cosmos 489 Rocket 4.3 18:37:13 10° NNW 18:43:31 87° ENE 18:49:44 10° SSE
Cosmos 2344 4.0 18:35:50 10° NNW 18:43:39 54° NE 18:47:32 36° ESE
Meteor 2-3 Rocket 3.6 18:41:45 10° N 18:47:28 70° ENE 18:49:59 34° SSE
BlueWalker 3 3.7 18:46:51 10° SSW 18:48:23 22° SSW 18:48:23 22° SSW
ISS -1.5 18:48:20 10° WNW 18:50:07 20° NW 18:50:07 20° NW
COSMO-SKYMED 1 3.7 18:57:48 23° NNW 18:59:51 39° WNW 19:03:41 10° SW
USA 281 3.6 19:02:00 46° NNE 19:02:00 46° NNE 19:07:21 10° NNW
Cosmos 968 Rocket 4.4 18:57:38 10° S 19:00:38 35° S 19:00:38 35° S
Cosmos 1634 Rocket 4.0 19:02:13 10° S 19:07:38 65° SSE 19:07:38 65° SSE
DELTA 2 R/B (1) 4.4 19:04:03 10° SW 19:08:21 39° S 19:08:21 39° S
BREEZE-M DEB (TANK) 4.3 19:22:31 10° WNW 19:37:20 69° SW 19:37:20 69° SW
Cosmos 2082 Rocket 4.2 19:34:05 10° NW 19:38:29 24° WSW 19:42:53 10° SSW
Cosmos 1092 Rocket 4.4 19:32:25 10° NNW 19:38:32 58° W 19:39:47 49° SW
Cosmos 2369 Rocket 4.2 19:44:36 10° SSW 19:46:11 20° SSW 19:46:11 20° SSW
SJ 16-02 4.2 19:50:02 10° W 19:52:03 13° NW 19:52:17 13° NW
ATLAS 2AS CENTAUR R/B 4.1 20:09:52 10° NW 20:13:01 30° NW 20:13:01 30° NW
